Location: Newark
(3.5000°N, 97.7500°E)
Time: 20:23:25
(UTC+00:00)

X-37B - Visible Passes

Search period start: 27 September 2020 00:00
Search period end: 07 October 2020 00:00
Orbit: 386 x 387 km, 45.0° (Epoch: 18 September)

Date Brightness Start Highest point End Pass type
(mag) Time Alt. Az. Time Alt. Az. Time Alt. Az.
27 Sep 3.7 12:58:40 10° WNW 12:59:49 11° NW 13:00:40 11° NNW visible
27 Sep 2.2 22:49:42 10° NNW 22:52:38 35° NE 22:55:35 10° ESE visible
28 Sep 2.5 11:58:25 10° WSW 12:01:15 30° NW 12:04:04 10° NNE visible
28 Sep 3.5 21:52:25 10° NNE 21:54:05 13° NE 21:55:44 10° ENE visible
29 Sep 0.5 22:29:42 17° NW 22:32:02 67° SW 22:35:11 10° SE visible
30 Sep 3.7 11:39:33 10° WNW 11:40:41 11° NW 11:41:49 10° NNW visible
30 Sep 3.0 21:34:50 24° E 21:34:50 24° E 21:36:27 10° ESE visible
01 Oct 2.4 22:12:13 20° SSW 22:12:13 20° SSW 22:13:57 10° S visible
